FENGYUN 1C DEB, 30630

Orbit data source: Space-Track

FENGYUN 1C DEB, 30630 is space debris in SSO originally from a launch on Mon, 10 May 1999 UTC launched from the Taiyaun Space Center, China (TSC). Fengyun 1C debris stems from the Chinese weather satellite Fengyun-1C, which was intentionally destroyed by a Chinese anti-satellite missile in 2007. This event dramatically increased the amount of space debris, with thousands of trackable fragments posing hazards to satellites and human spaceflight. The Fengyun 1C debris cloud has become a focal point in discussions about space sustainability and the need for international regulations to prevent the creation of new debris.

Loading next visibility...
Identifier
30630, 1999-025ANM
Orbit
SSO
Country
Flag of CNCN / PRC
Related business
Manufacturer
Unknown
Mission
Spacecraft
Bus & Motor
Unknown
Mass
Unknown
Launch date (UTC)
1999-05-10 (26 years ago)
Launch vehicle
Unknown
Launch site
Taiyaun Space Center, China (TSC)
Object type
Payload
Rocket body
Debris
Shape & HBR
Unknown shape, 0.1 m
Radar Cross Section
Small (<0.1 m²)

Expand to show TLE details & history
Last TLE update: 21 hours ago

TLE from 21 hours ago
0 FENGYUN 1C DEB
1 30630U 99025ANM 25309.28115947  .00002258  00000-0  10371-2 0  9994
2 30630  99.1728 120.8094 0025484 179.8245 306.5589 14.22151371966805
Epoch: 2025-11-05T06:44Z
TLE epoch observation values (Epoch: 2025-11-05T06:44:52.178Z)
Latitude
52.96166°
Longitude
167.12564°
Altitude
815.784 km
Speed
7.456 km/s
True Right ascension
20h 52m 23s
True Declination
52° 47' 51"
Sunlit
Object was in daylight at epoch
Visualization orbit readout
Latitude
Unknown
Longitude
Unknown
Altitude
Unknown
Speed
Unknown
Apparent Right ascension
Unknown
Apparent Declination
Unknown
Sunlit
N/A
Visualization observer readout
Local Sidereal Time
00:09:25
Azimuth
Unknown
Elevation
Unknown
Doppler factor
Unknown
Orbital elements
Apogee altitude
833.596 km
Perigee altitude
796.933 km
Semi-major axis
7,193.402 km
Eccentricity
0.00255
Inclination
99.1728°
RAAN
120.8094°
Arg. of periapsis
179.8245°
True anomaly
306.32389°
Mean anomaly
306.5589°
Eccentric anomaly
306.44144°
Mean motion
3.55747 °/min
Orbital period
101.2 mins
BSTAR
0.0010371
Loading maneuver chart data...
Computing Atmospheric mass density...

Documentation

Showing up to 5 results
|